K5WRW-WX Weather Reports


Display with metric or nautical units.
time (UTC)temp
F
wind
direction
speed
MPH
gust
MPH
rain 1hr
in
rain 24hr
in
rain mn
in
humidity
%
barometer
mb
20260901143216 85 203 3.0 5.0 0.00 0.00 0.00 65 1016.6
20260901142216 85 0 4.0 5.0 0.00 0.00 0.00 66 1016.7
20260901141216 84 0 4.0 7.0 0.00 0.00 0.00 66 1016.6
20260901140216 83 180 2.0 4.0 0.00 0.00 0.00 68 1016.6
20260901135216 82 180 5.0 7.0 0.00 0.00 0.00 68 1016.7
20260901134216 82 0 3.0 5.0 0.00 0.00 0.00 69 1016.5
20260901133216 82 158 4.0 7.0 0.00 0.00 0.00 69 1016.4
20260901132216 81 180 4.0 7.0 0.00 0.00 0.00 69 1016.4
20260901131216 80 158 3.0 5.0 0.00 0.00 0.00 70 1016.3
20260901130216 80 180 2.0 4.0 0.00 0.00 0.00 70 1016.3
20260901125216 80 0 2.0 4.0 0.00 0.00 0.00 70 1016.2
20260901124216 80 0 3.0 4.0 0.00 0.00 0.00 70 1016.0
20260901123216 79 0.0 0.0 0.00 0.00 0.00 70 1015.9
20260901122216 79 0.0 0.0 0.00 0.00 0.00 70 1015.9
20260901121216 79 0.0 0.0 0.00 0.00 0.00 70 1015.7
20260901120216 79 0.0 1.0 0.00 0.00 0.00 70 1015.6
20260901115216 79 0 2.0 4.0 0.00 0.00 0.00 70 1015.5
20260901114216 79 180 1.0 3.0 0.00 0.00 0.00 69 1015.5
20260901113236 79 180 2.0 4.0 0.00 0.00 0.00 69 1015.4
20260901112216 80 180 2.0 4.0 0.00 0.00 0.00 68 1015.4
20260901111216 80 203 2.0 4.0 0.00 0.00 0.00 68 1015.3
20260901110216 80 180 2.0 4.0 0.00 0.00 0.00 68 1015.2
20260901105216 80 0 2.0 4.0 0.00 0.00 0.00 68 1015.3
20260901104216 80 180 2.0 4.0 0.00 0.00 0.00 67 1015.2
20260901103216 80 203 2.0 5.0 0.00 0.00 0.00 67 1015.3
20260901102216 80 180 1.0 2.0 0.00 0.00 0.00 66 1015.2
20260901101216 81 0 2.0 4.0 0.00 0.00 0.00 66 1015.2
20260901100216 81 0 2.0 5.0 0.00 0.00 0.00 65 1015.2
20260901095216 81 180 3.0 5.0 0.00 0.00 0.00 65 1015.1
20260901094216 81 158 2.0 4.0 0.00 0.00 0.00 64 1015.2
20260901093216 82 0 2.0 5.0 0.00 0.00 0.00 64 1015.2
20260901092216 82 0 3.0 5.0 0.00 0.00 0.00 63 1015.3
20260901091215 82 158 2.0 5.0 0.00 0.00 0.00 63 1015.3
20260901090216 82 158 2.0 4.0 0.00 0.00 0.00 62 1015.3
20260901085215 82 135 2.0 3.0 0.00 0.00 0.00 62 1015.3
20260901084216 82 0 5.0 6.0 0.00 0.00 0.00 62 1015.3
20260901083215 82 158 4.0 6.0 0.00 0.00 0.00 62 1015.2
20260901082215 82 0 3.0 4.0 0.00 0.00 0.00 61 1015.1
20260901081255 82 180 2.0 4.0 0.00 0.00 0.00 61 1015.0
20260901080255 83 135 1.0 2.0 0.00 0.00 0.00 60 1015.0
20260901075215 83 0 4.0 5.0 0.00 0.00 0.00 60 1015.1
20260901074216 83 0 4.0 6.0 0.00 0.00 0.00 59 1015.0
20260901073216 84 158 2.0 4.0 0.00 0.00 0.00 59 1015.1
20260901072215 84 0 2.0 3.0 0.00 0.00 0.00 59 1015.1
20260901071215 84 158 2.0 5.0 0.00 0.00 0.00 58 1015.1
20260901070215 84 0 2.0 4.0 0.00 0.00 0.00 58 1015.1
20260901065215 84 0 2.0 4.0 0.00 0.00 0.00 58 1015.1
20260901064215 84 158 2.0 4.0 0.00 0.00 0.00 57 1015.1
20260901063215 84 158 1.0 2.0 0.00 0.00 0.00 57 1015.0
20260901062215 84 203 4.0 5.0 0.00 0.00 0.00 56 1015.0
20260901061215 85 0 2.0 4.0 0.00 0.00 0.00 56 1014.9
20260901060215 85 135 3.0 4.0 0.00 0.00 0.00 55 1014.7
20260901055215 85 158 3.0 5.0 0.00 0.00 0.00 55 1014.7
20260901054238 85 0 4.0 5.0 0.00 0.00 0.00 54 1014.6
20260901053215 85 180 3.0 5.0 0.00 0.00 0.00 54 1014.5
20260901052217 86 135 4.0 6.0 0.00 0.00 0.00 53 1014.5
20260901051217 86 0 4.0 7.0 0.00 0.00 0.00 52 1014.4
20260901050217 86 0 6.0 9.0 0.00 0.00 0.00 51 1014.2
20260901045217 87 135 6.0 7.0 0.00 0.00 0.00 50 1014.3
20260901044217 87 0 6.0 8.0 0.00 0.00 0.00 49 1014.1
20260901043217 88 0 5.0 6.0 0.00 0.00 0.00 48 1014.2
20260901042217 88 0 6.0 7.0 0.00 0.00 0.00 48 1014.1
20260901041217 88 0 5.0 6.0 0.00 0.00 0.00 48 1014.1
20260901040217 89 135 3.0 5.0 0.00 0.00 0.00 47 1014.1
20260901035217 89 135 3.0 4.0 0.00 0.00 0.00 46 1014.2
20260901034217 90 135 5.0 6.0 0.00 0.00 0.00 45 1014.0
20260901033217 90 0 3.0 4.0 0.00 0.00 0.00 45 1014.0
20260901032216 90 0 2.0 4.0 0.00 0.00 0.00 45 1014.1
20260901031217 90 135 2.0 3.0 0.00 0.00 0.00 44 1013.9
20260901030217 90 135 1.0 2.0 0.00 0.00 0.00 44 1013.8
20260901025217 90 135 2.0 4.0 0.00 0.00 0.00 43 1013.7
20260901024217 91 135 1.0 2.0 0.00 0.00 0.00 43 1013.6
20260901023216 91 135 3.0 5.0 0.00 0.00 0.00 43 1013.4
20260901022216 91 135 3.0 5.0 0.00 0.00 0.00 42 1013.2
20260901021216 91 0 2.0 4.0 0.00 0.00 0.00 42 1013.0
20260901020216 92 158 2.0 4.0 0.00 0.00 0.00 42 1013.1
20260901015216 92 158 2.0 2.0 0.00 0.00 0.00 42 1012.9
20260901014216 93 158 1.0 2.0 0.00 0.00 0.00 41 1012.8
20260901013216 93 158 1.0 2.0 0.00 0.00 0.00 40 1012.7
20260901012216 94 158 2.0 4.0 0.00 0.00 0.00 40 1012.7
20260901011217 94 158 2.0 4.0 0.00 0.00 0.00 39 1012.6
20260901010216 95 180 2.0 3.0 0.00 0.00 0.00 38 1012.6
20260901005216 96 158 2.0 4.0 0.00 0.00 0.00 37 1012.6
20260901004217 96 135 1.0 3.0 0.00 0.00 0.00 37 1012.5
20260901003216 97 0 5.0 8.0 0.00 0.00 0.00 36 1012.5
20260901002216 97 0 4.0 6.0 0.00 0.00 0.00 35 1012.4
20260901001216 97 0 5.0 7.0 0.00 0.00 0.00 35 1012.5
20260901000218 98 0 5.0 7.0 0.00 0.00 0.00 35 1012.4
20260831235216 98 0 5.0 7.0 0.00 0.00 0.00 34 1012.4
20260831234216 98 0 5.0 7.0 0.00 0.00 0.00 35 1012.4
20260831233236 99 0 4.0 8.0 0.00 0.00 0.00 34 1012.5
20260831232216 99 0 5.0 8.0 0.00 0.00 0.00 34 1012.4
20260831231216 99 0 7.0 8.0 0.00 0.00 0.00 34 1012.5
20260831230236 99 203 4.0 8.0 0.00 0.00 0.00 33 1012.6
20260831225216 99 0 5.0 7.0 0.00 0.00 0.00 33 1012.6
20260831224216 100 0 5.0 9.0 0.00 0.00 0.00 33 1012.8
20260831223216 100 0 7.0 11.0 0.00 0.00 0.00 32 1012.8
20260831222216 100 0 5.0 7.0 0.00 0.00 0.00 32 1012.8
20260831221216 100 0 5.0 7.0 0.00 0.00 0.00 32 1012.9
20260831220216 100 135 5.0 8.0 0.00 0.00 0.00 32 1013.0
20260831215216 99 248 3.0 5.0 0.00 0.00 0.00 32 1013.0
20260831214216 99 0 7.0 9.0 0.00 0.00 0.00 32 1013.2
20260831213216 98 135 3.0 5.0 0.00 0.00 0.00 33 1013.2
20260831212216 98 0 6.0 8.0 0.00 0.00 0.00 31 1013.3
20260831211216 99 0 1.0 4.0 0.00 0.00 0.00 31 1013.5
20260831210216 98 0 6.0 9.0 0.00 0.00 0.00 32 1013.5
20260831205216 99 225 4.0 5.0 0.00 0.00 0.00 30 1013.7
20260831204215 99 0 6.0 9.0 0.00 0.00 0.00 31 1013.9
20260831203216 99 0 7.0 10.0 0.00 0.00 0.00 31 1014.0
20260831202215 99 0 5.0 7.0 0.00 0.00 0.00 32 1014.2
20260831201236 99 0 5.0 8.0 0.00 0.00 0.00 32 1014.2
20260831200215 99 0 4.0 8.0 0.00 0.00 0.00 32 1014.2
20260831195216 99 0 5.0 8.0 0.00 0.00 0.00 33 1014.5
20260831194216 99 0 8.0 11.0 0.00 0.00 0.00 33 1014.6
20260831193216 99 0 7.0 11.0 0.00 0.00 0.00 32 1014.7
20260831192215 99 0 6.0 8.0 0.00 0.00 0.00 32 1014.7
20260831191216 99 225 7.0 9.0 0.00 0.00 0.00 31 1014.9
20260831190215 99 225 7.0 11.0 0.00 0.00 0.00 32 1014.9
20260831185215 98 180 7.0 10.0 0.00 0.00 0.00 33 1015.0
20260831184215 98 0 10.0 14.0 0.00 0.00 0.00 36 1015.3
20260831183236 97 203 7.0 11.0 0.00 0.00 0.00 34 1015.2
20260831182215 98 225 6.0 8.0 0.00 0.00 0.00 36 1015.4
20260831181215 97 203 6.0 9.0 0.00 0.00 0.00 36 1015.4
20260831180215 97 203 5.0 10.0 0.00 0.00 0.00 38 1015.7
20260831175316 98 135 5.0 9.0 0.00 0.00 0.00 37 1015.8
20260831174215 98 0 6.0 10.0 0.00 0.00 0.00 38 1015.9
20260831173215 97 135 6.0 8.0 0.00 0.00 0.00 38 1016.1
20260831172215 97 158 3.0 5.0 0.00 0.00 0.00 39 1016.2
20260831171215 96 0 6.0 9.0 0.00 0.00 0.00 40 1016.3
20260831170215 95 225 7.0 8.0 0.00 0.00 0.00 41 1016.2
20260831165255 95 0 8.0 11.0 0.00 0.00 0.00 41 1016.2
20260831164217 95 180 3.0 6.0 0.00 0.00 0.00 41 1016.4
20260831163217 94 203 5.0 7.0 0.00 0.00 0.00 41 1016.4
20260831162217 94 0 6.0 12.0 0.00 0.00 0.00 41 1016.4
20260831161217 94 0 5.0 7.0 0.00 0.00 0.00 42 1016.6
20260831160237 93 203 5.0 9.0 0.00 0.00 0.00 45 1016.5
20260831155217 92 0 5.0 9.0 0.00 0.00 0.00 44 1016.5
20260831154217 92 0 7.0 16.0 0.00 0.00 0.00 47 1016.5
20260831153217 91 0 10.0 13.0 0.00 0.00 0.00 48 1016.4
20260831152217 90 225 6.0 8.0 0.00 0.00 0.00 49 1016.4
20260831151217 90 158 3.0 7.0 0.00 0.00 0.00 51 1016.3
20260831150217 89 203 6.0 11.0 0.00 0.00 0.00 52 1016.3
20260831145217 88 225 8.0 12.0 0.00 0.00 0.00 55 1016.2
20260831144217 87 0 5.0 8.0 0.00 0.00 0.00 58 1016.2